Location: Unspecified
(0.0000°N, 0.0000°E)
Time: 17:58:36
(UTC+00:00)

deb Briz - Visible Passes

Search period start: 08 March 2026 00:00
Search period end: 18 March 2026 00:00
Orbit: 1833 x 2139 km, 65.0° (Epoch: 8 March)

Date Brightness Start Highest point End Pass type
(mag) Time Alt. Az. Time Alt. Az. Time Alt. Az.
8 Mar ? 20:23:30 10° N 20:27:18 23° NNE 20:27:18 23° NNE visible
9 Mar ? 19:40:03 10° NNE 19:44:32 20° NE 19:44:32 20° NE visible
9 Mar ? 21:48:26 10° NW 21:51:35 23° NW 21:51:35 23° NW visible
10 Mar ? 18:59:21 10° NE 19:01:58 12° ENE 19:01:58 12° ENE visible
10 Mar ? 21:02:49 10° NNW 21:09:01 42° NNW 21:09:01 42° NNW visible
11 Mar ? 20:17:51 10° N 20:26:41 54° NE 20:26:41 54° NE visible
11 Mar ? 22:31:33 10° WNW 22:52:43 - S 22:33:46 15° WNW visible
12 Mar ? 19:33:37 10° N 19:43:13 36° ENE 19:44:41 35° E visible
12 Mar ? 21:44:15 10° NW 22:07:50 - S 21:51:48 37° W visible
13 Mar ? 18:50:32 10° NNE 18:57:53 20° ENE 19:03:11 14° ESE visible
13 Mar ? 20:58:02 10° NNW 21:08:50 65° WSW 21:10:22 60° SW visible
14 Mar ? 20:12:36 10° NNW 20:23:32 82° ENE 20:30:21 30° SSE visible
14 Mar ? 22:29:39 10° W 22:35:04 15° WSW 22:37:54 13° SW visible
15 Mar ? 19:27:48 10° N 19:38:16 52° ENE 19:49:18 10° SE visible
15 Mar ? 21:40:40 10° WNW 21:49:26 27° WSW 21:58:40 10° SSW visible
16 Mar ? 18:43:47 10° N 18:52:59 31° ENE 19:02:33 10° SE visible
16 Mar ? 20:53:42 10° NW 21:03:57 45° WSW 21:14:52 10° S visible
17 Mar ? 20:07:42 10° NNW 20:18:36 73° WSW 20:30:14 10° SSE visible
